Regional Weather Roundup
Issued by NWS Upton, NY

Current Version | Previous Version | Graphics & Text | Print | Product List | Glossary Off
Versions: 1 2 3 4 5 6 7 8 9 10 11 12 13 14 15 16 17 18 19 20 21 22 23 24 25 26 27 28 29 30 31 32 33 34 35 36 37 38 39 40 41 42 43 44 45 46 47 48 49 50

000
ASUS41 KOKX 211405
RWROKX

REGIONAL WEATHER ROUNDUP
NATIONAL WEATHER SERVICE NEW YORK NY
1000 AM EDT TUE OCT 21 2014

NOTE: "FAIR" INDICATES FEW OR NO CLOUDS BELOW 12,000 FEET WITH NO
SIGNIFICANT WEATHER AND/OR OBSTRUCTIONS TO VISIBILITY.

NYZ071-072-176-178-NJZ106-104-211500-
NEW YORK CITY METRO AREA


CITY           SKY/WX    TMP DP  RH WIND       PRES   REMARKS
CENTRAL PARK   MOSUNNY   61  45  55 CALM      29.92S
LAGUARDIA APRT MOSUNNY   62  45  53 CALM      29.89F
KENNEDY INTL   MOSUNNY   63  48  58 E3        29.90F
NEWARK/LIBERTY PTSUNNY   61  48  62 NW3       29.90S
BRNX BOT. GARD   N/A     63  46  55 E2        29.92F
TETERBORO      MOSUNNY   59  47  64 N5        29.90R
$$

NYZ177-179-078>081-211500-
LONG ISLAND NEW YORK

CITY           SKY/WX    TMP DP  RH WIND       PRES   REMARKS
FARMINGDALE    SUNNY     60  51  72 E3        29.91S
ISLIP          PTSUNNY   60  51  72 E6        29.90S
SHIRLEY        PTSUNNY   60  52  74 CALM      29.93R
WESTHAMPTON    PTSUNNY   61  52  72 E5        29.93S
MONTAUK POINT    N/A     63  53  70 CALM      29.94S
$$

NYZ052-065-067-211500-
HUDSON VALLEY

CITY           SKY/WX    TMP DP  RH WIND       PRES   REMARKS
WHITE PLAINS   PTSUNNY   57  48  72 CALM      29.90S
NEWBURGH       PTSUNNY   50  50 100 VRB5      29.93R
MONTGOMERY     CLOUDY    49  46  90 CALM      29.92F
POUGHKEEPSIE   RAIN      51  48  89 NW3       29.92R FOG
ALBANY         LGT RAIN  50  47  89 N5        29.93S FOG
$$

NJZ001-105-106-008-010-013-015-019>022-104-211500-
NEW JERSEY

CITY           SKY/WX    TMP DP  RH WIND       PRES   REMARKS
NEWARK/LIBERTY PTSUNNY   61  48  62 NW3       29.90S
TETERBORO      MOSUNNY   59  47  64 N5        29.90R
CALDWELL       CLOUDY    52  45  77 N5        29.92S
MORRISTOWN     PTSUNNY   55  52  88 NE5       29.91S
SOMERVILLE     PTSUNNY   56  48  74 CALM      29.89S
SUSSEX         CLOUDY    53  46  77 N3        29.91S
ANDOVER          N/A     52  49  89 CALM      29.90S
TRENTON        SUNNY     57  48  72 CALM      29.89S
MILLVILLE      PTSUNNY   63  53  70 SW6       29.88S
ATLANTIC CITY  MOSUNNY   64  56  75 S5        29.88F
WRIGHTSTOWN    CLOUDY    60  51  73 CALM      29.87S
TOMS RIVER     CLOUDY    63  50  63 CALM      29.89S
BELMAR         MOSUNNY   63  48  59 S7        29.89S
$$

PAZ047>061-062-071-211500-
EASTERN PENNSYLVANIA

CITY           SKY/WX    TMP DP  RH WIND       PRES   REMARKS
PHILADELPHIA   MOSUNNY   58  50  75 CALM      29.89R
ALLENTOWN      CLOUDY    55  48  77 NE3       29.89S
SCRANTON       PTSUNNY   55  49  80 CALM      29.87S
$$

CTZ002-004>006-009-010-012-RIZ004-006-007-MAZ004-011-015-211500-
SOUTHERN NEW ENGLAND
 IN CT

CITY           SKY/WX    TMP DP  RH WIND       PRES   REMARKS
BRADLEY INTL   CLOUDY    53  44  71 N6        29.94F
HARTFORD       CLOUDY    50  44  80 VRB5      29.95F
DANBURY        CLOUDY    54  29  38 CALM      29.92F
WTRBRY/OXFORD  PTSUNNY   54  45  71 E7        29.92F
BRIDGEPORT     MOSUNNY   60  51  72 NE8       29.92S
MERIDEN        CLOUDY    53  45  74 N3        29.94F
NEW HAVEN      PTSUNNY   58  48  69 N5        29.93S
CHESTER        FAIR      55  50  82 CALM      29.94S
GROTON         CLOUDY    57  52  83 NE6       29.93S
WILLIMANTIC    CLOUDY    48  44  86 CALM      29.94F

 IN RI

CITY           SKY/WX    TMP DP  RH WIND       PRES   REMARKS
PROVIDENCE     PTSUNNY   59  54  83 CALM      29.96F
BLOCK ISLAND   CLOUDY    61  55  82 S13       29.93S
WESTERLY       CLOUDY    56  54  93 CALM      29.94F

 IN MA

CITY           SKY/WX    TMP DP  RH WIND       PRES   REMARKS
BOSTON         CLOUDY    58  53  84 SE7       29.97F
WORCESTER      CLOUDY    50  45  83 NE5       29.97S
WESTFIELD      CLOUDY    50  43  77 N8        29.95F
PROVINCETOWN   CLOUDY    59  52  77 SE13G20   29.98F
NANTUCKET      LGT RAIN  58  56  93 SE16      29.99S FOG
$$

ANZ330-335-338-340-345-350-353-355-211500-
COASTAL MARINE OBSERVATIONS


STATION/POSITION TIME  SKY/WX   TEMP    WIND        PRES    VSBY  WAVE
                                AIR SEA DIR/SP/G                  HT/PER
                 (UTC)          (F)     (DEG/KT/KT) (MB)    (MI)  (FT/S)
NY HARB ENTRANCE NOT AVBL
4S FIRE IS       1400               63                N/A           4/ 6
20S FIRE ISLAND  1400            63 63  110/  8/  8 1012.8          3/ 6
23SW MTP         1400                                 N/A           4/ 7
HUDSON CANYON    1400            66 66  170/  8/ 10 1012.8          4/ 6
EXECUTION ROCKS  1400            60 63   50/  4/  6   N/A
WESTERN LI SOUND 1400            59      70/ 10/ 12   N/A           0
CENTRAL LI SOUND 1300            62 63  120/ 12/ 12   N/A           1/ 2
EASTERN LI SOUND 1300            58 64   40/  8/ 10   N/A
ROBBINS REEF     1400            60      60/  3/  4 1011.2
$$


>>>>>>>>>>>>>>>>>>>>>>>>>>>> KEY <<<<<<<<<<<<<<<<<<<<<<<<<<<
>                                                          <
>     SKY/WX - SKY CONDITION/PRESENT WEATHER               <
>     TMP    - TEMPERATURE IN FAHRENHEIT                   <
>     DP     - DEWPOINT IN FAHRENHEIT                      <
>     RH     - RELATIVE HUMIDITY IN PERCENT                <
>     WIND   - DIRECTION AND SPEED IN MPH                  <
>     PRES   - MEAN SEA LEVEL PRESSURE IN INCHES OF HG     <
>     WCI    - WIND CHILL INDEX                            <
>     VSB    - VISIBILITY IN MILES                         <
>     HX     - HEAT INDEX                                  <
>     TC     - TEMPERATURE IN CELSIUS                      <
>     VRB    - VARIABLE WIND DIRECTION                     <
>                                                          <
>>>>>>>>>>>>>>>>>>>>>>>>>>>> KEY <<<<<<<<<<<<<<<<<<<<<<<<<<<





USA.gov is the U.S. government's official web portal to all federal, state and local government web resources and services.